Regional Weather Roundup
Issued by NWS Goodland, KS

Home | Current Version | Previous Version | Graphics & Text | Print | Product List | Glossary On
Versions: 1 2 3 4 5 6 7 8 9 10 11 12 13 14 15 16 17 18 19 20 21 22 23 24 25 26 27 28 29 30 31 32 33 34 35 36 37 38 39 40 41 42 43 44 45 46 47 48 49 50
000
ASUS43 KGLD 060708
RWRGLD

GOODLAND FORECAST AREA HOURLY WEATHER ROUNDUP
NATIONAL WEATHER SERVICE GOODLAND KS
100 AM MDT WED MAY 06 2015

...OFFICIAL OBSERVATIONS...

CITY           SKY/WX    TMP DP  RH WIND       PRES   REMARKS
GOODLAND KS    CLOUDY    52  51  97 S10       29.76S
HILL CITY KS   CLOUDY    62  59  90 SE9       29.80F
IMPERIAL NEB   CLOUDY    56  53  90 SE13G23   29.75S
MCCOOK NEB     CLOUDY    60  57  89 SE16G25   29.76F
AKRON CO       CLOUDY    51  51 100 SE16      29.68F FOG
BURLINGTON CO  CLOUDY    52  50  93 S15       29.75S
LIMON CO       CLOUDY    50  46  86 SW6       29.75S
$$

...UNOFFICIAL OBSERVATIONS...

CITY           SKY/WX    TMP DP  RH WIND       PRES   REMARKS
COLBY KS       CLOUDY    55  55 100 SE15      29.77S
GOVE KS          N/A     56  32  40 MISG        N/A
LENORA KS        N/A     60  32  34 MISG        N/A
NORTON KS      CLOUDY    59  55  88 SE12G17   29.79F
SHARON SPRINGS   N/A     52  51  95 MISG        N/A
KIT CARSON CO    N/A     50  48  92 MISG        N/A
YUMA CO          N/A     55  55 100 SE14        N/A
$$



USA.gov is the U.S. government's official web portal to all federal, state and local government web resources and services.